sat.trackr.live / text

‹ back to catalog

STARLINK-36667

NORAD 68975 · 2026-099AA

PAYLOAD ACTIVE UNKNOWN

§ Identity

Operator
Country
US
Launch date
2026-05-01
Launch site
AFETR
Launch vehicle
Mass (kg)
RCS (m²)

Purposes: comms

External: N2YO · Heavens-Above · Gunter

§ Orbital elements

Epoch: 2026-05-25T04:00:03.998880Z

Period
92.16 min
Inclination
53.1591°
Eccentricity
0.0000752
Mean motion
15.62509594 rev/d
Perigee alt
379.9 km
Apogee alt
380.9 km
Semi-major
6,758.5 km
B*
-2.6881e-2
RAAN
269.9802°
Arg perigee
86.6217°
Mean anomaly
250.4237°
Rev number
501

§ Raw data

STARLINK-366671 68975U 26099AA  26145.16671295 -.02166169  00000+0 -26881-1 0  99942 68975  53.1591 269.9802 0000752  86.6217 250.4237 15.62509594  5016

JSON: /api/v1/satellites/68975 · /tle

For live sub-satellite position, see the globe view (requires WebGL).

§ Visibility from observer

Set your observer location to see the next 7 days of passes ≥ 10°. The values pass through the URL so the page stays shareable.

No JS? Fill the form by hand. The geolocation button needs JavaScript.